DW1437 Weather Reports


time (UTC)temp
C
wind
direction
speed
KPH
gust
KPH
rain 1hr
cm
rain 24hr
cm
rain mn
cm
humidity
%
barometer
mb
20260507122946 14 90 0.0 6.4 0.00 0.00 0.00 67 1014.7
20260507121921 13 84 0.0 0.0 0.00 0.00 0.00 69 1014.7
20260507115832 13 84 0.0 4.8 0.00 0.00 0.00 68 1014.9
20260507113707 13 161 1.6 11.3 0.00 0.00 0.00 69 1015.0
20260507111532 14 90 1.6 8.0 0.00 0.00 0.00 74 1015.1
20260507110529 13 50 1.6 8.0 0.00 0.00 0.00 73 1015.2
20260507105536 13 213 0.0 4.8 0.00 0.00 0.00 74 1015.4
20260507104515 12 229 0.0 0.0 0.00 0.00 0.00 76 1015.4
20260507103519 12 98 0.0 0.0 0.00 0.00 0.00 79 1015.5
20260507102503 12 49 0.0 0.0 0.00 0.00 0.00 83 1015.5
20260507101517 11 10 0.0 0.0 0.00 0.00 0.00 84 1015.7
20260507095344 10 78 0.0 0.0 0.00 0.00 0.00 86 1015.6
20260507094316 10 80 0.0 0.0 0.00 0.00 0.00 86 1015.7
20260507093316 9 133 0.0 0.0 0.00 0.00 0.00 87 1015.6
20260507091137 8 146 0.0 0.0 0.00 0.00 0.00 89 1015.6
20260507090120 8 63 0.0 0.0 0.00 0.00 0.00 89 1015.6
20260507085138 8 63 0.0 0.0 0.00 0.00 0.00 90 1015.7
20260507084149 8 63 0.0 0.0 0.00 0.00 0.00 90 1015.7
20260507075806 7 63 0.0 0.0 0.00 0.00 0.00 91 1015.7
20260507074810 7 63 0.0 0.0 0.00 0.00 0.00 91 1015.7
20260507073747 7 63 0.0 0.0 0.00 0.00 0.00 91 1015.7
20260507072743 7 63 0.0 0.0 0.00 0.00 0.00 91 1015.6
20260507071759 7 63 0.0 0.0 0.00 0.00 0.00 91 1015.6
20260507065543 6 63 0.0 0.0 0.00 0.00 0.00 91 1015.3
20260507064542 6 63 0.0 0.0 0.00 0.00 0.00 91 1015.4
20260507063532 6 63 0.0 0.0 0.00 0.00 0.00 92 1015.3
20260507062533 6 63 0.0 0.0 0.00 0.00 0.00 92 1015.3
20260507061554 6 63 0.0 0.0 0.00 0.00 0.00 92 1015.3
20260507060548 6 63 0.0 0.0 0.00 0.00 0.00 91 1015.3
20260507055603 6 63 0.0 0.0 0.00 0.00 0.00 91 1015.3
20260507054621 6 63 0.0 0.0 0.00 0.00 0.00 91 1015.3
20260507053606 6 63 0.0 0.0 0.00 0.00 0.00 91 1015.2
20260507052621 6 63 0.0 0.0 0.00 0.00 0.00 91 1015.2
20260507051629 6 63 0.0 0.0 0.00 0.00 0.00 91 1015.1
20260507050642 6 63 0.0 0.0 0.00 0.00 0.00 91 1015.2
20260507045641 6 63 0.0 0.0 0.00 0.00 0.00 91 1015.1
20260507044648 6 63 0.0 0.0 0.00 0.00 0.00 90 1015.1
20260507043629 6 63 0.0 0.0 0.00 0.00 0.00 90 1015.0
20260507042619 6 63 0.0 0.0 0.00 0.00 0.00 90 1015.0
20260507041604 6 63 0.0 0.0 0.00 0.00 0.00 90 1014.9
20260507035433 6 63 0.0 0.0 0.00 0.00 0.00 90 1014.8
20260507033258 6 63 0.0 0.0 0.00 0.00 0.00 89 1014.9
20260507032300 6 63 0.0 0.0 0.00 0.00 0.00 89 1015.1
20260507031309 6 63 0.0 0.0 0.00 0.00 0.00 89 1015.1
20260507030326 6 63 0.0 0.0 0.00 0.00 0.00 89 1015.2
20260507025345 6 63 0.0 0.0 0.00 0.00 0.00 88 1015.0
20260507024328 6 63 0.0 0.0 0.00 0.00 0.00 89 1015.0
20260507022216 6 63 0.0 0.0 0.00 0.00 0.00 88 1015.0
20260507021200 6 63 0.0 0.0 0.00 0.00 0.00 88 1015.0
20260507020216 6 63 0.0 0.0 0.00 0.00 0.00 88 1015.0
20260507015154 6 63 0.0 0.0 0.00 0.00 0.00 88 1015.0
20260507014204 6 63 0.0 0.0 0.00 0.00 0.00 87 1015.1
20260507012033 6 63 0.0 0.0 0.00 0.00 0.00 87 1015.2
20260507005948 7 63 0.0 0.0 0.00 0.00 0.00 86 1015.1
20260507004926 7 63 0.0 0.0 0.00 0.00 0.00 86 1015.0
20260507002759 7 63 0.0 0.0 0.00 0.00 0.00 85 1015.2
20260507001730 7 63 0.0 0.0 0.00 0.00 0.00 85 1015.3
20260507000720 7 63 0.0 0.0 0.00 0.00 0.00 84 1015.2
20260506235654 7 63 0.0 0.0 0.00 0.00 0.00 85 1015.2
20260506234638 7 63 0.0 1.6 0.00 0.00 0.00 84 1015.1
20260506233630 7 60 0.0 3.2 0.00 0.00 0.00 84 1015.2
20260506232606 7 113 0.0 1.6 0.00 0.00 0.00 84 1015.2
20260506231549 7 66 0.0 0.0 0.00 0.00 0.00 84 1015.0
20260506225447 7 76 1.6 4.8 0.00 0.00 0.00 83 1014.9
20260506223331 8 72 1.6 3.2 0.00 0.00 0.00 82 1014.8
20260506222321 8 72 1.6 4.8 0.00 0.00 0.00 82 1014.9
20260506221306 8 68 1.6 4.8 0.00 0.00 0.00 81 1014.8
20260506220253 8 71 1.6 3.2 0.00 0.00 0.00 81 1014.8
20260506215306 8 67 1.6 4.8 0.00 0.00 0.00 81 1014.8
20260506213134 8 59 0.0 3.2 0.00 0.00 0.00 81 1014.6
20260506212110 7 37 0.0 0.0 0.00 0.00 0.00 80 1014.6
20260506211110 7 37 0.0 0.0 0.00 0.00 0.00 79 1014.6
20260506210109 8 37 0.0 0.0 0.00 0.00 0.00 78 1014.5
20260506205036 8 37 0.0 0.0 0.00 0.00 0.00 77 1014.5
20260506204054 8 36 0.0 0.0 0.00 0.00 0.00 76 1014.4
20260506203109 8 36 0.0 0.0 0.00 0.00 0.00 75 1014.4
20260506202133 8 36 0.0 0.0 0.00 0.00 0.00 74 1014.3
20260506201101 8 36 0.0 0.0 0.00 0.00 0.00 73 1014.2
20260506200110 9 36 0.0 0.0 0.00 0.00 0.00 73 1014.1
20260506193937 9 36 0.0 0.0 0.00 0.00 0.00 71 1013.8
20260506192929 10 36 0.0 0.0 0.00 0.00 0.00 70 1013.8
20260506191943 10 36 0.0 0.0 0.00 0.00 0.00 68 1013.7
20260506185731 11 36 0.0 0.0 0.00 0.00 0.00 66 1013.6
20260506184746 11 36 0.0 0.0 0.00 0.00 0.00 65 1013.6
20260506183724 12 36 0.0 1.6 0.00 0.00 0.00 62 1013.6
20260506182659 12 36 0.0 1.6 0.00 0.00 0.00 63 1013.6
20260506181702 12 36 0.0 1.6 0.00 0.00 0.00 60 1013.6
20260506180637 12 36 0.0 4.8 0.00 0.00 0.00 59 1013.5
20260506175630 13 36 1.6 4.8 0.00 0.00 0.00 56 1013.4
20260506174641 13 60 0.0 1.6 0.00 0.00 0.00 58 1013.3
20260506173638 13 60 0.0 1.6 0.00 0.00 0.00 58 1013.3
20260506172639 13 60 0.0 0.0 0.00 0.00 0.00 57 1013.4
20260506171629 13 59 0.0 3.2 0.00 0.00 0.00 55 1013.3
20260506170633 13 34 0.0 0.0 0.00 0.00 0.00 59 1013.3
20260506163414 13 51 1.6 9.7 0.00 0.00 0.00 59 1013.2
20260506162355 13 48 1.6 9.7 0.00 0.00 0.00 56 1013.3
20260506161327 13 331 0.0 6.4 0.00 0.00 0.00 59 1013.3
20260506160350 13 40 1.6 4.8 0.00 0.00 0.00 58 1013.3
20260506155408 13 43 0.0 4.8 0.00 0.00 0.00 57 1013.3
20260506154407 13 116 0.0 0.0 0.00 0.00 0.00 56 1013.3
20260506153401 13 26 0.0 4.8 0.00 0.00 0.00 56 1013.3
20260506152422 13 52 0.0 14.5 0.00 0.00 0.00 56 1013.4
20260506151438 14 31 0.0 6.4 0.00 0.00 0.00 55 1013.5
20260506150427 13 344 0.0 3.2 0.00 0.00 0.00 58 1013.4
20260506144318 13 32 0.0 14.5 0.00 0.00 0.00 58 1013.6
20260506143313 13 45 0.0 1.6 0.00 0.00 0.00 60 1013.6
20260506142241 13 44 1.6 12.9 0.00 0.00 0.00 57 1013.6
20260506141237 13 44 1.6 12.9 0.00 0.00 0.00 61 1013.7
20260506135059 14 59 0.0 9.7 0.00 0.00 0.00 58 1013.8
20260506132943 13 15 0.0 0.0 0.00 0.00 0.00 61 1014.0
20260506131927 13 46 1.6 9.7 0.00 0.00 0.00 60 1014.0
20260506125802 13 26 1.6 9.7 0.00 0.00 0.00 62 1014.1
20260506124736 13 32 0.0 4.8 0.00 0.00 0.00 63 1014.2
20260506123757 13 336 1.6 1.6 0.00 0.00 0.00 64 1014.1